2024-174B

Last updated on Fri Oct 04 2024 00:02:05 GMT+0000 (Coordinated Universal Time)

1 61239U 24174B 24277.53775851 .00018142 00000+0 93308-3 0 9993 2 61239 97.4553 282.6812 0013770 253.4247 106.5474 15.16420243 1297
UTC large
Height (km)
Speed (km/s)
/
Latitude / Longitude
Inclination (degrees)
Orbital Period (minutes)
Azimuth
Elevation
Range (km)
Doppler Factor

Next 0 passes for location: London (51.5072 / 0.1276)

Sorry there are no passes over London.